Overview Statistics Trail Chart Weather Telemetry Raw packets
 

This is the latest recevied weather packets stored in our database for station/object HA2SKA-1. If no packets are shown the sender has not sent any weather packets the latest 10 day(s).

<< 1 2 3 4 >>
Time Temp. Humidity Pressure Rain* Wind** Luminosity Snow
1788662113 19.44° C 100% 1026.3 hPa - - - -
1788661212 18.89° C 100% 1026.1 hPa - - - -
1788660312 17.22° C 100% 1026.3 hPa - - - -
1788659412 18.33° C 100% 1026.1 hPa - - - -
1788658512 19.44° C 100% 1025.9 hPa - - - -
1788657612 20° C 100% 1025.6 hPa - - - -
1788656712 20° C 100% 1025.5 hPa - - - -
1788655812 18.89° C 100% 1025.6 hPa - - - -
1788654912 20° C 100% 1025.4 hPa - - - -
1788654012 19.44° C 100% 1025.3 hPa - - - -
1788653112 19.44° C 100% 1025.4 hPa - - - -
1788652212 18.89° C 100% 1025.3 hPa - - - -
1788651311 19.44° C 100% 1025.2 hPa - - - -
1788650411 18.89° C 100% 1025.2 hPa - - - -
1788649511 19.44° C 100% 1025.3 hPa - - - -
1788648611 17.78° C 100% 1025.1 hPa - - - -
1788647711 17.78° C 100% 1025.1 hPa - - - -
1788646811 18.89° C 100% 1025.2 hPa - - - -
1788645911 18.89° C 100% 1025.2 hPa - - - -
1788645011 20.56° C 100% 1025.2 hPa - - - -
1788644111 20.56° C 100% 1025.1 hPa - - - -
1788643211 20.56° C 100% 1024.9 hPa - - - -
1788642311 20° C 100% 1024.7 hPa - - - -
1788641410 19.44° C 100% 1024.6 hPa - - - -
1788640510 18.33° C 100% 1024.6 hPa - - - -

* Rain since midnight (hover to see other rain measurements)
** Current wind speed in m/s (hover to see current wind gust speed)